Time,TemperatureF,DewpointF,PressureIn,WindDirection,WindDirectionDegrees,WindSpeedMPH,WindSpeedGustMPH,Humidity,HourlyPrecipIn,Conditions,Clouds,dailyrainin,SolarRadiationWatts/m^2,SoftwareType,DateUTC
2013-06-25 00:00:00,62.7,58.1,29.93,NNE,30,0.0,0.0,85,0.00,,,0.00,0,WeatherCatV1.14B232,2013-06-25 07:00:00,
2013-06-25 00:05:00,62.7,58.1,29.93,NNE,30,0.0,0.0,85,0.00,,,0.00,0,WeatherCatV1.14B232,2013-06-25 07:05:00,
2013-06-25 00:10:00,62.7,58.1,29.93,NNE,30,0.0,0.0,85,0.00,,,0.00,0,WeatherCatV1.14B232,2013-06-25 07:10:00,
2013-06-25 00:15:00,62.7,58.1,29.94,NNE,30,0.0,0.0,85,0.00,,,0.00,0,WeatherCatV1.14B232,2013-06-25 07:15:00,
2013-06-25 00:20:00,62.6,58.0,29.93,NNE,30,0.0,0.0,85,0.00,,,0.00,0,WeatherCatV1.14B232,2013-06-25 07:20:00,
2013-06-25 00:25:00,62.7,58.1,29.93,NNE,30,0.0,0.0,85,0.00,,,0.00,0,WeatherCatV1.14B232,2013-06-25 07:25:00,
2013-06-25 00:30:00,62.6,58.0,29.94,NNE,30,0.0,0.0,85,0.00,,,0.00,0,WeatherCatV1.14B232,2013-06-25 07:30:00,
2013-06-25 00:35:00,62.7,58.4,29.94,NNE,30,0.0,0.0,86,0.00,,,0.00,0,WeatherCatV1.14B232,2013-06-25 07:35:00,
2013-06-25 00:40:00,62.7,58.4,29.93,NNE,30,0.0,0.0,86,0.00,,,0.00,0,WeatherCatV1.14B232,2013-06-25 07:40:00,
2013-06-25 00:45:00,62.7,58.4,29.93,NNE,30,0.0,0.0,86,0.00,,,0.01,0,WeatherCatV1.14B232,2013-06-25 07:45:00,
2013-06-25 00:50:00,62.6,58.3,29.93,NNE,30,0.0,0.0,86,0.00,,,0.01,0,WeatherCatV1.14B232,2013-06-25 07:50:00,
2013-06-25 00:55:00,62.6,58.3,29.93,NNE,30,0.0,0.0,86,0.00,,,0.01,0,WeatherCatV1.14B232,2013-06-25 07:55:00,
2013-06-25 01:00:00,62.6,58.3,29.93,NNE,30,0.0,0.0,86,0.00,,,0.01,0,WeatherCatV1.14B232,2013-06-25 08:00:00,
2013-06-25 01:05:00,62.6,58.3,29.93,NNE,30,0.0,0.0,86,0.00,,,0.01,0,WeatherCatV1.14B232,2013-06-25 08:05:00,
2013-06-25 01:10:00,62.6,58.3,29.93,NNE,30,0.0,0.0,86,0.00,,,0.01,0,WeatherCatV1.14B232,2013-06-25 08:10:00,
2013-06-25 01:15:00,62.6,58.3,29.93,NNE,30,0.0,0.0,86,0.00,,,0.01,0,WeatherCatV1.14B232,2013-06-25 08:15:00,
2013-06-25 01:20:00,62.6,58.3,29.93,NNE,30,0.0,0.0,86,0.00,,,0.01,0,WeatherCatV1.14B232,2013-06-25 08:20:00,
2013-06-25 01:25:00,62.6,58.3,29.93,NNE,30,0.0,0.0,86,0.00,,,0.01,0,WeatherCatV1.14B232,2013-06-25 08:25:00,
2013-06-25 01:30:00,62.6,58.3,29.93,NNE,30,0.0,0.0,86,0.00,,,0.01,0,WeatherCatV1.14B232,2013-06-25 08:30:00,
2013-06-25 01:35:00,62.6,58.3,29.93,NNE,30,0.0,0.0,86,0.00,,,0.01,0,WeatherCatV1.14B232,2013-06-25 08:35:00,
2013-06-25 01:40:00,62.6,58.3,29.93,NNE,30,0.0,0.0,86,0.00,,,0.01,0,WeatherCatV1.14B232,2013-06-25 08:40:00,
2013-06-25 01:45:00,62.6,58.3,29.93,NNE,30,0.0,0.0,86,0.00,,,0.01,0,WeatherCatV1.14B232,2013-06-25 08:45:00,
2013-06-25 01:50:00,62.6,58.3,29.93,NNE,30,0.0,0.0,86,0.00,,,0.01,0,WeatherCatV1.14B232,2013-06-25 08:50:00,
2013-06-25 01:55:00,62.6,58.3,29.93,NNE,30,0.0,0.0,86,0.00,,,0.01,0,WeatherCatV1.14B232,2013-06-25 08:55:00,
2013-06-25 02:00:00,62.6,58.3,29.92,NNE,30,0.0,0.0,86,0.00,,,0.01,0,WeatherCatV1.14B232,2013-06-25 09:00:00,
2013-06-25 02:05:00,62.5,58.2,29.93,NNE,31,0.0,1.0,86,0.00,,,0.01,0,WeatherCatV1.14B232,2013-06-25 09:05:00,
2013-06-25 02:10:00,62.5,58.2,29.93,NNE,31,0.0,0.0,86,0.00,,,0.01,0,WeatherCatV1.14B232,2013-06-25 09:10:00,
2013-06-25 02:15:00,62.4,58.2,29.93,NNE,31,0.0,0.0,86,0.00,,,0.01,0,WeatherCatV1.14B232,2013-06-25 09:15:00,
2013-06-25 02:20:00,62.3,58.1,29.93,NNE,31,0.0,0.0,86,0.00,,,0.01,0,WeatherCatV1.14B232,2013-06-25 09:20:00,
2013-06-25 02:25:00,62.3,58.1,29.93,NNE,31,0.0,0.0,86,0.00,,,0.01,0,WeatherCatV1.14B232,2013-06-25 09:25:00,
2013-06-25 02:30:00,62.2,58.0,29.93,NNE,31,0.0,0.0,86,0.00,,,0.01,0,WeatherCatV1.14B232,2013-06-25 09:30:00,
2013-06-25 02:35:00,62.2,58.0,29.93,NNE,31,0.0,0.0,86,0.00,,,0.01,0,WeatherCatV1.14B232,2013-06-25 09:35:00,
2013-06-25 02:40:00,62.1,57.9,29.93,NNE,31,0.0,0.0,86,0.00,,,0.01,0,WeatherCatV1.14B232,2013-06-25 09:40:00,
2013-06-25 02:45:00,62.1,57.9,29.93,NNE,31,0.0,0.0,86,0.00,,,0.01,0,WeatherCatV1.14B232,2013-06-25 09:45:00,
2013-06-25 02:50:00,62.0,57.8,29.93,NNE,31,0.0,0.0,86,0.00,,,0.01,0,WeatherCatV1.14B232,2013-06-25 09:50:00,
2013-06-25 02:55:00,62.0,57.8,29.93,NNE,31,0.0,0.0,86,0.00,,,0.01,0,WeatherCatV1.14B232,2013-06-25 09:55:00,
2013-06-25 03:00:00,62.0,57.8,29.93,NNE,31,0.0,0.0,86,0.00,,,0.01,0,WeatherCatV1.14B232,2013-06-25 10:00:00,
2013-06-25 03:05:00,62.0,57.8,29.93,NNE,31,0.0,0.0,86,0.00,,,0.01,0,WeatherCatV1.14B232,2013-06-25 10:05:00,
2013-06-25 03:10:00,61.9,57.7,29.93,NNE,31,0.0,0.0,86,0.00,,,0.01,0,WeatherCatV1.14B232,2013-06-25 10:10:00,
2013-06-25 03:15:00,61.9,57.7,29.93,NNE,31,0.0,0.0,86,0.00,,,0.01,0,WeatherCatV1.14B232,2013-06-25 10:15:00,
2013-06-25 03:20:00,61.9,58.0,29.92,NNE,31,0.0,0.0,87,0.00,,,0.01,0,WeatherCatV1.14B232,2013-06-25 10:20:00,
2013-06-25 03:25:00,61.8,57.9,29.93,NNE,31,0.0,0.0,87,0.00,,,0.01,0,WeatherCatV1.14B232,2013-06-25 10:25:00,
2013-06-25 03:30:00,61.8,57.6,29.93,NNE,31,0.0,0.0,86,0.00,,,0.01,0,WeatherCatV1.14B232,2013-06-25 10:30:00,
2013-06-25 03:35:00,61.8,57.6,29.93,NNE,31,0.0,0.0,86,0.00,,,0.01,0,WeatherCatV1.14B232,2013-06-25 10:35:00,
2013-06-25 03:40:00,61.8,57.9,29.93,NNE,31,0.0,0.0,87,0.00,,,0.01,0,WeatherCatV1.14B232,2013-06-25 10:40:00,
2013-06-25 03:45:00,61.8,57.9,29.93,NNE,31,0.0,0.0,87,0.00,,,0.01,0,WeatherCatV1.14B232,2013-06-25 10:45:00,
2013-06-25 03:50:00,61.7,57.8,29.93,NNE,31,0.0,0.0,87,0.00,,,0.01,0,WeatherCatV1.14B232,2013-06-25 10:50:00,
2013-06-25 03:55:00,61.7,57.8,29.93,NNE,31,0.0,0.0,87,0.00,,,0.01,0,WeatherCatV1.14B232,2013-06-25 10:55:00,
2013-06-25 04:00:00,61.6,57.7,29.92,NNE,31,0.0,0.0,87,0.00,,,0.01,0,WeatherCatV1.14B232,2013-06-25 11:00:00,
2013-06-25 04:05:00,61.6,57.7,29.92,NNE,31,0.0,0.0,87,0.00,,,0.01,0,WeatherCatV1.14B232,2013-06-25 11:05:00,
2013-06-25 04:10:00,61.6,57.7,29.92,NNE,31,0.0,0.0,87,0.00,,,0.01,0,WeatherCatV1.14B232,2013-06-25 11:10:00,
2013-06-25 04:15:00,61.6,57.7,29.92,NNE,31,0.0,0.0,87,0.00,,,0.01,0,WeatherCatV1.14B232,2013-06-25 11:15:00,
2013-06-25 04:20:00,61.6,57.7,29.92,NNE,31,0.0,0.0,87,0.00,,,0.01,0,WeatherCatV1.14B232,2013-06-25 11:20:00,
2013-06-25 04:25:00,61.6,57.7,29.92,NNE,31,0.0,0.0,87,0.00,,,0.01,0,WeatherCatV1.14B232,2013-06-25 11:25:00,
2013-06-25 04:30:00,61.5,57.6,29.92,NNE,31,0.0,0.0,87,0.00,,,0.01,0,WeatherCatV1.14B232,2013-06-25 11:30:00,
2013-06-25 04:35:00,61.5,57.6,29.92,NNE,31,0.0,0.0,87,0.00,,,0.01,0,WeatherCatV1.14B232,2013-06-25 11:35:00,
2013-06-25 04:40:00,61.5,57.6,29.92,NNE,31,0.0,0.0,87,0.00,,,0.01,0,WeatherCatV1.14B232,2013-06-25 11:40:00,
2013-06-25 04:45:00,61.5,57.6,29.92,NNE,31,0.0,0.0,87,0.00,,,0.01,0,WeatherCatV1.14B232,2013-06-25 11:45:00,
2013-06-25 04:46:00,61.5,57.6,29.92,NNE,31,0.0,0.0,87,0.00,,,0.01,0,WeatherCatV1.14B232,2013-06-25 11:46:00,
2013-06-25 04:51:00,61.4,57.5,29.92,NNE,31,0.0,0.0,87,0.00,,,0.01,0,WeatherCatV1.14B232,2013-06-25 11:51:00,
2013-06-25 04:56:00,61.4,57.5,29.92,NNE,31,0.0,0.0,87,0.00,,,0.01,0,WeatherCatV1.14B232,2013-06-25 11:56:00,
2013-06-25 05:01:00,61.4,57.5,29.92,NNE,31,0.0,0.0,87,0.00,,,0.01,0,WeatherCatV1.14B232,2013-06-25 12:01:00,
2013-06-25 05:06:00,61.3,57.4,29.92,NNE,32,0.0,0.0,87,0.00,,,0.01,0,WeatherCatV1.14B232,2013-06-25 12:06:00,
2013-06-25 05:11:00,61.3,57.4,29.92,NNE,32,0.0,0.0,87,0.00,,,0.01,0,WeatherCatV1.14B232,2013-06-25 12:11:00,
2013-06-25 05:16:00,61.3,57.4,29.92,SE,136,2.0,2.0,87,0.00,,,0.01,0,WeatherCatV1.14B232,2013-06-25 12:16:00,
2013-06-25 05:21:00,61.3,57.4,29.92,SE,139,0.0,2.0,87,0.00,,,0.01,0,WeatherCatV1.14B232,2013-06-25 12:21:00,
2013-06-25 05:26:00,61.2,57.3,29.92,SSE,149,0.0,2.0,87,0.00,,,0.01,0,WeatherCatV1.14B232,2013-06-25 12:26:00,
2013-06-25 05:31:00,61.2,57.3,29.93,SSE,151,0.0,0.0,87,0.00,,,0.01,0,WeatherCatV1.14B232,2013-06-25 12:31:00,
2013-06-25 05:36:00,61.2,57.3,29.93,SSE,151,0.0,1.0,87,0.00,,,0.01,0,WeatherCatV1.14B232,2013-06-25 12:36:00,
2013-06-25 05:41:00,61.2,57.3,29.93,SSE,154,0.0,0.0,87,0.00,,,0.01,0,WeatherCatV1.14B232,2013-06-25 12:41:00,
2013-06-25 05:46:00,61.3,57.4,29.93,SSE,154,0.0,1.0,87,0.00,,,0.01,0,WeatherCatV1.14B232,2013-06-25 12:46:00,
2013-06-25 05:51:00,61.3,57.4,29.93,SSE,153,0.0,1.0,87,0.00,,,0.01,0,WeatherCatV1.14B232,2013-06-25 12:51:00,
2013-06-25 05:56:00,61.3,57.4,29.93,ESE,121,0.0,1.0,87,0.00,,,0.01,0,WeatherCatV1.14B232,2013-06-25 12:56:00,
2013-06-25 06:01:00,61.3,57.4,29.94,ESE,121,0.0,0.0,87,0.00,,,0.01,0,WeatherCatV1.14B232,2013-06-25 13:01:00,
2013-06-25 06:06:00,61.4,57.5,29.94,SE,140,3.0,4.0,87,0.00,,,0.01,0,WeatherCatV1.14B232,2013-06-25 13:06:00,
2013-06-25 06:11:00,61.4,57.5,29.94,SE,132,0.0,1.0,87,0.00,,,0.01,0,WeatherCatV1.14B232,2013-06-25 13:11:00,
2013-06-25 06:16:00,61.5,57.6,29.94,South,176,0.0,2.0,87,0.00,,,0.01,0,WeatherCatV1.14B232,2013-06-25 13:16:00,
2013-06-25 06:21:00,61.5,57.6,29.94,SSE,168,0.0,0.0,87,0.00,,,0.01,5,WeatherCatV1.14B232,2013-06-25 13:21:00,
2013-06-25 06:26:00,61.6,57.7,29.94,SSE,167,0.0,2.0,87,0.00,,,0.01,7,WeatherCatV1.14B232,2013-06-25 13:26:00,
2013-06-25 06:31:00,61.6,57.7,29.94,SSE,167,0.0,0.0,87,0.00,,,0.01,9,WeatherCatV1.14B232,2013-06-25 13:31:00,
2013-06-25 06:36:00,61.6,57.7,29.94,SSE,167,0.0,2.0,87,0.00,,,0.01,11,WeatherCatV1.14B232,2013-06-25 13:36:00,
2013-06-25 06:41:00,61.7,57.8,29.95,SSE,167,0.0,0.0,87,0.00,,,0.01,12,WeatherCatV1.14B232,2013-06-25 13:41:00,
2013-06-25 06:46:00,61.7,57.8,29.95,SSE,167,0.0,0.0,87,0.00,,,0.01,14,WeatherCatV1.14B232,2013-06-25 13:46:00,
2013-06-25 06:51:00,61.8,57.9,29.95,SSE,167,0.0,0.0,87,0.00,,,0.01,14,WeatherCatV1.14B232,2013-06-25 13:51:00,
2013-06-25 06:56:00,61.8,57.9,29.95,SSE,167,0.0,0.0,87,0.00,,,0.01,16,WeatherCatV1.14B232,2013-06-25 13:56:00,
2013-06-25 07:01:00,61.9,58.0,29.95,SSE,167,0.0,0.0,87,0.00,,,0.01,14,WeatherCatV1.14B232,2013-06-25 14:01:00,
2013-06-25 07:06:00,61.9,58.0,29.95,SSE,167,0.0,0.0,87,0.00,,,0.01,16,WeatherCatV1.14B232,2013-06-25 14:06:00,
2013-06-25 07:11:00,62.0,58.1,29.95,SSE,167,0.0,0.0,87,0.00,,,0.01,21,WeatherCatV1.14B232,2013-06-25 14:11:00,
2013-06-25 07:16:00,62.1,58.2,29.95,SSE,167,0.0,0.0,87,0.00,,,0.01,18,WeatherCatV1.14B232,2013-06-25 14:16:00,
2013-06-25 07:21:00,62.2,58.3,29.95,SSE,167,0.0,0.0,87,0.00,,,0.01,18,WeatherCatV1.14B232,2013-06-25 14:21:00,
2013-06-25 07:26:00,62.2,58.3,29.95,SSE,167,0.0,0.0,87,0.00,,,0.01,19,WeatherCatV1.14B232,2013-06-25 14:26:00,
2013-06-25 07:31:00,62.3,58.4,29.95,SSE,167,0.0,0.0,87,0.00,,,0.01,35,WeatherCatV1.14B232,2013-06-25 14:31:00,
2013-06-25 07:36:00,62.3,58.4,29.95,South,169,0.0,2.0,87,0.00,,,0.01,74,WeatherCatV1.14B232,2013-06-25 14:36:00,
2013-06-25 07:41:00,62.4,58.5,29.95,South,169,0.0,3.0,87,0.00,,,0.01,179,WeatherCatV1.14B232,2013-06-25 14:41:00,
2013-06-25 07:46:00,62.6,58.7,29.95,South,169,0.0,0.0,87,0.00,,,0.01,63,WeatherCatV1.14B232,2013-06-25 14:46:00,
2013-06-25 07:51:00,62.8,59.2,29.95,SSE,166,0.0,0.0,88,0.00,,,0.01,67,WeatherCatV1.14B232,2013-06-25 14:51:00,
2013-06-25 07:56:00,63.0,59.4,29.95,SSE,167,1.0,2.0,88,0.00,,,0.01,86,WeatherCatV1.14B232,2013-06-25 14:56:00,
2013-06-25 08:01:00,63.2,59.6,29.95,SSE,167,0.0,0.0,88,0.00,,,0.01,62,WeatherCatV1.14B232,2013-06-25 15:01:00,
2013-06-25 08:06:00,63.4,59.8,29.95,South,174,0.0,3.0,88,0.00,,,0.01,79,WeatherCatV1.14B232,2013-06-25 15:06:00,
2013-06-25 08:11:00,63.6,60.0,29.95,South,174,0.0,3.0,88,0.00,,,0.01,42,WeatherCatV1.14B232,2013-06-25 15:11:00,
2013-06-25 08:16:00,63.8,59.9,29.95,South,169,0.0,1.0,87,0.00,,,0.01,86,WeatherCatV1.14B232,2013-06-25 15:16:00,
2013-06-25 08:21:00,64.0,60.0,29.95,South,169,0.0,0.0,87,0.00,,,0.01,127,WeatherCatV1.14B232,2013-06-25 15:21:00,
2013-06-25 08:26:00,64.1,60.1,29.96,South,169,0.0,0.0,87,0.00,,,0.01,90,WeatherCatV1.14B232,2013-06-25 15:26:00,
2013-06-25 08:31:00,64.4,60.4,29.96,South,169,0.0,0.0,87,0.00,,,0.01,74,WeatherCatV1.14B232,2013-06-25 15:31:00,
2013-06-25 08:36:00,64.5,60.5,29.96,SSE,166,0.0,0.0,87,0.00,,,0.01,121,WeatherCatV1.14B232,2013-06-25 15:36:00,
2013-06-25 08:41:00,64.8,60.8,29.96,SSE,166,0.0,0.0,87,0.00,,,0.01,134,WeatherCatV1.14B232,2013-06-25 15:41:00,
2013-06-25 08:46:00,64.9,60.9,29.96,SSE,167,0.0,0.0,87,0.00,,,0.01,77,WeatherCatV1.14B232,2013-06-25 15:46:00,
2013-06-25 08:51:00,65.2,61.2,29.96,SSE,167,0.0,0.0,87,0.00,,,0.01,95,WeatherCatV1.14B232,2013-06-25 15:51:00,
2013-06-25 08:56:00,65.3,61.3,29.96,SSE,167,0.0,0.0,87,0.00,,,0.01,84,WeatherCatV1.14B232,2013-06-25 15:56:00,
2013-06-25 09:01:00,65.5,61.2,29.97,SSE,167,0.0,1.0,86,0.00,,,0.01,77,WeatherCatV1.14B232,2013-06-25 16:01:00,
2013-06-25 09:06:00,65.6,61.3,29.97,SSE,167,0.0,1.0,86,0.00,,,0.01,83,WeatherCatV1.14B232,2013-06-25 16:06:00,
2013-06-25 09:11:00,65.7,61.4,29.97,SSE,149,0.0,0.0,86,0.00,,,0.01,95,WeatherCatV1.14B232,2013-06-25 16:11:00,
2013-06-25 09:16:00,65.8,61.2,29.97,SSE,150,2.0,2.0,85,0.00,,,0.01,91,WeatherCatV1.14B232,2013-06-25 16:16:00,
2013-06-25 09:21:00,65.9,61.3,29.97,SSE,150,0.0,0.0,85,0.00,,,0.01,77,WeatherCatV1.14B232,2013-06-25 16:21:00,
2013-06-25 09:26:00,66.1,61.5,29.97,SSE,150,0.0,2.0,85,0.00,,,0.01,98,WeatherCatV1.14B232,2013-06-25 16:26:00,
2013-06-25 09:31:00,66.3,61.3,29.97,SSE,152,0.0,2.0,84,0.00,,,0.01,93,WeatherCatV1.14B232,2013-06-25 16:31:00,
2013-06-25 09:36:00,66.4,61.4,29.97,SSE,166,0.0,1.0,84,0.00,,,0.01,97,WeatherCatV1.14B232,2013-06-25 16:36:00,
2013-06-25 09:41:00,66.6,61.6,29.98,SE,137,0.0,2.0,84,0.00,,,0.01,63,WeatherCatV1.14B232,2013-06-25 16:41:00,
2013-06-25 09:46:00,66.8,61.8,29.98,SE,136,0.0,2.0,84,0.00,,,0.01,67,WeatherCatV1.14B232,2013-06-25 16:46:00,
2013-06-25 09:51:00,66.9,61.6,29.98,ESE,123,1.0,9.0,83,0.00,,,0.01,70,WeatherCatV1.14B232,2013-06-25 16:51:00,
2013-06-25 09:56:00,67.1,61.4,29.98,South,172,0.0,0.0,82,0.00,,,0.01,65,WeatherCatV1.14B232,2013-06-25 16:56:00,
2013-06-25 10:01:00,67.2,61.5,29.98,SSW,210,0.0,2.0,82,0.00,,,0.01,58,WeatherCatV1.14B232,2013-06-25 17:01:00,
2013-06-25 10:06:00,67.4,61.7,29.98,SSW,210,0.0,0.0,82,0.00,,,0.01,47,WeatherCatV1.14B232,2013-06-25 17:06:00,
2013-06-25 10:11:00,67.5,61.8,29.98,SSW,210,0.0,0.0,82,0.00,,,0.01,58,WeatherCatV1.14B232,2013-06-25 17:11:00,
2013-06-25 10:16:00,67.6,61.6,29.98,SSW,210,0.0,0.0,81,0.00,,,0.01,65,WeatherCatV1.14B232,2013-06-25 17:16:00,
2013-06-25 10:21:00,67.7,61.7,29.98,South,190,2.0,2.0,81,0.00,,,0.01,72,WeatherCatV1.14B232,2013-06-25 17:21:00,
2013-06-25 10:26:00,67.9,61.8,29.98,South,191,2.0,2.0,81,0.00,,,0.01,72,WeatherCatV1.14B232,2013-06-25 17:26:00,
2013-06-25 10:31:00,68.0,61.9,29.99,SE,130,0.0,0.0,81,0.00,,,0.01,76,WeatherCatV1.14B232,2013-06-25 17:31:00,
2013-06-25 10:36:00,68.0,61.6,29.99,SE,130,0.0,1.0,80,0.00,,,0.01,65,WeatherCatV1.14B232,2013-06-25 17:36:00,
2013-06-25 10:41:00,68.1,61.7,29.99,SE,130,0.0,0.0,80,0.00,,,0.01,72,WeatherCatV1.14B232,2013-06-25 17:41:00,
2013-06-25 10:46:00,68.3,61.9,29.99,SE,130,0.0,0.0,80,0.00,,,0.01,58,WeatherCatV1.14B232,2013-06-25 17:46:00,
2013-06-25 10:51:00,68.4,62.0,29.99,SE,130,0.0,1.0,80,0.00,,,0.01,58,WeatherCatV1.14B232,2013-06-25 17:51:00,
2013-06-25 10:56:00,68.5,62.1,29.99,SE,130,0.0,0.0,80,0.00,,,0.01,60,WeatherCatV1.14B232,2013-06-25 17:56:00,
2013-06-25 11:01:00,68.6,62.2,29.99,SSE,156,0.0,2.0,80,0.00,,,0.01,60,WeatherCatV1.14B232,2013-06-25 18:01:00,
2013-06-25 11:06:00,68.7,61.9,30.00,SSE,156,0.0,0.0,79,0.00,,,0.01,62,WeatherCatV1.14B232,2013-06-25 18:06:00,
2013-06-25 11:11:00,68.7,61.9,30.00,SW,227,0.0,2.0,79,0.00,,,0.01,72,WeatherCatV1.14B232,2013-06-25 18:11:00,
2013-06-25 11:16:00,68.7,61.6,30.00,SW,222,0.0,1.0,78,0.00,,,0.01,83,WeatherCatV1.14B232,2013-06-25 18:16:00,
2013-06-25 11:21:00,68.8,61.7,30.00,WSW,245,0.0,3.0,78,0.00,,,0.01,93,WeatherCatV1.14B232,2013-06-25 18:21:00,
2013-06-25 11:26:00,68.8,61.7,30.00,WSW,248,0.0,1.0,78,0.00,,,0.01,98,WeatherCatV1.14B232,2013-06-25 18:26:00,
2013-06-25 11:31:00,68.9,61.7,30.00,SSW,204,0.0,3.0,78,0.00,,,0.01,97,WeatherCatV1.14B232,2013-06-25 18:31:00,
2013-06-25 11:36:00,69.0,61.8,30.00,SSW,204,0.0,1.0,78,0.00,,,0.01,107,WeatherCatV1.14B232,2013-06-25 18:36:00,
2013-06-25 11:41:00,69.1,61.6,30.01,SSW,205,0.0,1.0,77,0.00,,,0.01,104,WeatherCatV1.14B232,2013-06-25 18:41:00,
2013-06-25 11:46:00,69.2,61.7,30.01,SE,145,0.0,1.0,77,0.00,,,0.01,123,WeatherCatV1.14B232,2013-06-25 18:46:00,
2013-06-25 11:51:00,69.3,61.8,30.01,SE,146,0.0,1.0,77,0.00,,,0.01,144,WeatherCatV1.14B232,2013-06-25 18:51:00,
2013-06-25 11:56:00,69.4,61.5,30.01,SSW,211,0.0,2.0,76,0.00,,,0.01,148,WeatherCatV1.14B232,2013-06-25 18:56:00,
2013-06-25 12:01:00,69.6,61.7,30.01,SSE,167,1.0,3.0,76,0.00,,,0.01,137,WeatherCatV1.14B232,2013-06-25 19:01:00,
2013-06-25 12:06:00,69.8,61.9,30.01,East,93,4.0,5.0,76,0.00,,,0.01,149,WeatherCatV1.14B232,2013-06-25 19:06:00,
2013-06-25 12:11:00,69.9,61.6,30.01,SE,146,0.0,5.0,75,0.00,,,0.01,123,WeatherCatV1.14B232,2013-06-25 19:11:00,
2013-06-25 12:15:00,70.1,61.8,30.01,South,173,1.0,2.0,75,0.00,,,0.01,151,WeatherCatV1.14B232,2013-06-25 19:15:00,
2013-06-25 12:20:00,70.3,62.0,30.01,South,173,0.0,0.0,75,0.00,,,0.01,151,WeatherCatV1.14B232,2013-06-25 19:20:00,
2013-06-25 12:25:00,70.4,61.7,30.01,South,179,0.0,0.0,74,0.00,,,0.01,97,WeatherCatV1.14B232,2013-06-25 19:25:00,
2013-06-25 12:30:00,70.5,61.8,30.01,SSE,165,0.0,1.0,74,0.00,,,0.01,148,WeatherCatV1.14B232,2013-06-25 19:30:00,
2013-06-25 12:35:00,70.6,62.3,30.01,WSW,249,0.0,0.0,75,0.00,,,0.01,171,WeatherCatV1.14B232,2013-06-25 19:35:00,
2013-06-25 12:40:00,70.8,62.5,30.01,SW,221,1.0,1.0,75,0.00,,,0.01,127,WeatherCatV1.14B232,2013-06-25 19:40:00,
2013-06-25 12:45:00,70.8,62.5,30.01,SW,221,0.0,1.0,75,0.00,,,0.01,105,WeatherCatV1.14B232,2013-06-25 19:45:00,
2013-06-25 12:50:00,70.8,62.1,30.01,SW,214,2.0,3.0,74,0.00,,,0.01,118,WeatherCatV1.14B232,2013-06-25 19:50:00,
2013-06-25 12:55:00,70.9,62.2,30.01,ESE,117,0.0,2.0,74,0.00,,,0.01,111,WeatherCatV1.14B232,2013-06-25 19:55:00,
2013-06-25 13:00:00,71.0,62.7,30.01,ESE,117,0.0,1.0,75,0.00,,,0.01,121,WeatherCatV1.14B232,2013-06-25 20:00:00,
2013-06-25 13:05:00,71.1,62.4,30.01,SSE,154,2.0,7.0,74,0.00,,,0.01,132,WeatherCatV1.14B232,2013-06-25 20:05:00,
2013-06-25 13:10:00,71.2,62.5,30.01,SSW,197,1.0,1.0,74,0.00,,,0.01,137,WeatherCatV1.14B232,2013-06-25 20:10:00,
2013-06-25 13:15:00,71.3,62.6,30.01,SW,214,0.0,1.0,74,0.00,,,0.01,132,WeatherCatV1.14B232,2013-06-25 20:15:00,
2013-06-25 13:20:00,71.3,62.2,30.01,SE,138,0.0,7.0,73,0.00,,,0.01,162,WeatherCatV1.14B232,2013-06-25 20:20:00,
2013-06-25 13:25:00,71.5,62.8,30.01,NW,326,0.0,1.0,74,0.00,,,0.01,130,WeatherCatV1.14B232,2013-06-25 20:25:00,
2013-06-25 13:30:00,71.7,63.0,30.01,NW,326,0.0,1.0,74,0.00,,,0.01,123,WeatherCatV1.14B232,2013-06-25 20:30:00,
2013-06-25 13:35:00,71.7,63.0,30.01,South,183,0.0,0.0,74,0.00,,,0.01,120,WeatherCatV1.14B232,2013-06-25 20:35:00,
2013-06-25 13:40:00,71.8,63.1,30.01,South,173,0.0,1.0,74,0.00,,,0.01,111,WeatherCatV1.14B232,2013-06-25 20:40:00,
2013-06-25 13:45:00,71.9,62.8,30.01,South,189,0.0,1.0,73,0.00,,,0.01,109,WeatherCatV1.14B232,2013-06-25 20:45:00,
2013-06-25 13:50:00,71.9,62.8,30.01,ESE,120,0.0,1.0,73,0.00,,,0.01,125,WeatherCatV1.14B232,2013-06-25 20:50:00,
2013-06-25 13:55:00,71.9,62.8,30.01,West,261,0.0,1.0,73,0.00,,,0.01,127,WeatherCatV1.14B232,2013-06-25 20:55:00,
2013-06-25 14:00:00,72.0,62.9,30.01,ESE,104,0.0,4.0,73,0.00,,,0.01,134,WeatherCatV1.14B232,2013-06-25 21:00:00,
2013-06-25 14:05:00,72.1,63.0,30.01,South,171,0.0,0.0,73,0.00,,,0.01,121,WeatherCatV1.14B232,2013-06-25 21:05:00,
2013-06-25 14:10:00,72.2,63.0,30.01,SE,144,0.0,1.0,73,0.00,,,0.01,114,WeatherCatV1.14B232,2013-06-25 21:10:00,
2013-06-25 14:15:00,72.2,63.0,30.01,West,271,0.0,0.0,73,0.00,,,0.01,109,WeatherCatV1.14B232,2013-06-25 21:15:00,
2013-06-25 14:20:00,72.3,63.1,30.01,West,271,0.0,0.0,73,0.00,,,0.01,100,WeatherCatV1.14B232,2013-06-25 21:20:00,
2013-06-25 14:25:00,72.4,63.2,30.01,West,271,0.0,0.0,73,0.00,,,0.01,90,WeatherCatV1.14B232,2013-06-25 21:25:00,
2013-06-25 14:30:00,72.4,63.2,30.01,South,188,0.0,2.0,73,0.00,,,0.01,83,WeatherCatV1.14B232,2013-06-25 21:30:00,
2013-06-25 14:35:00,72.4,62.8,30.01,SW,217,0.0,4.0,72,0.00,,,0.01,77,WeatherCatV1.14B232,2013-06-25 21:35:00,
2013-06-25 14:40:00,72.4,62.8,30.01,WSW,254,1.0,5.0,72,0.00,,,0.01,72,WeatherCatV1.14B232,2013-06-25 21:40:00,
2013-06-25 14:45:00,72.4,62.8,30.01,WSW,254,2.0,2.0,72,0.00,,,0.01,76,WeatherCatV1.14B232,2013-06-25 21:45:00,
2013-06-25 14:50:00,72.4,62.8,30.01,West,280,3.0,3.0,72,0.00,,,0.01,84,WeatherCatV1.14B232,2013-06-25 21:50:00,
2013-06-25 14:55:00,72.3,62.8,30.01,West,264,2.0,4.0,72,0.00,,,0.01,81,WeatherCatV1.14B232,2013-06-25 21:55:00,
2013-06-25 15:00:00,72.3,62.8,30.01,West,275,1.0,4.0,72,0.00,,,0.01,83,WeatherCatV1.14B232,2013-06-25 22:00:00,
2013-06-25 15:05:00,72.2,62.7,30.01,West,265,0.0,2.0,72,0.00,,,0.01,74,WeatherCatV1.14B232,2013-06-25 22:05:00,
2013-06-25 15:10:00,72.2,62.7,30.00,West,279,4.0,4.0,72,0.00,,,0.01,74,WeatherCatV1.14B232,2013-06-25 22:10:00,
2013-06-25 15:15:00,72.2,62.7,30.01,West,269,0.0,3.0,72,0.00,,,0.01,72,WeatherCatV1.14B232,2013-06-25 22:15:00,
2013-06-25 15:20:00,72.2,62.7,30.01,West,269,0.0,1.0,72,0.00,,,0.01,76,WeatherCatV1.14B232,2013-06-25 22:20:00,
2013-06-25 15:25:00,72.2,63.0,30.01,West,269,0.0,3.0,73,0.00,,,0.01,72,WeatherCatV1.14B232,2013-06-25 22:25:00,
2013-06-25 15:30:00,72.2,63.0,30.00,West,271,0.0,3.0,73,0.00,,,0.01,77,WeatherCatV1.14B232,2013-06-25 22:30:00,
2013-06-25 15:35:00,72.2,63.0,30.01,WSW,249,0.0,4.0,73,0.00,,,0.01,81,WeatherCatV1.14B232,2013-06-25 22:35:00,
2013-06-25 15:40:00,72.2,63.0,30.00,West,273,2.0,4.0,73,0.00,,,0.01,91,WeatherCatV1.14B232,2013-06-25 22:40:00,
2013-06-25 15:45:00,72.3,63.1,30.00,WSW,248,0.0,4.0,73,0.00,,,0.01,109,WeatherCatV1.14B232,2013-06-25 22:45:00,
2013-06-25 15:50:00,72.4,63.2,30.00,WNW,298,0.0,3.0,73,0.00,,,0.01,153,WeatherCatV1.14B232,2013-06-25 22:50:00,
2013-06-25 15:55:00,72.5,63.3,29.99,West,267,1.0,4.0,73,0.00,,,0.01,165,WeatherCatV1.14B232,2013-06-25 22:55:00,
2013-06-25 16:00:00,72.8,63.6,29.99,WSW,254,0.0,2.0,73,0.00,,,0.01,227,WeatherCatV1.14B232,2013-06-25 23:00:00,
2013-06-25 16:05:00,73.3,63.7,29.99,WSW,249,2.0,4.0,72,0.00,,,0.01,229,WeatherCatV1.14B232,2013-06-25 23:05:00,
2013-06-25 16:10:00,73.8,64.2,29.99,West,263,1.0,7.0,72,0.00,,,0.01,269,WeatherCatV1.14B232,2013-06-25 23:10:00,
2013-06-25 16:15:00,74.5,64.5,29.99,WSW,250,1.0,9.0,71,0.00,,,0.01,396,WeatherCatV1.14B232,2013-06-25 23:15:00,
2013-06-25 16:20:00,74.9,64.8,29.99,West,273,1.0,1.0,71,0.00,,,0.01,350,WeatherCatV1.14B232,2013-06-25 23:20:00,
2013-06-25 16:25:00,75.8,65.3,29.99,WSW,246,0.0,3.0,70,0.00,,,0.01,401,WeatherCatV1.14B232,2013-06-25 23:25:00,
2013-06-25 16:30:00,77.4,65.6,29.99,South,182,0.0,3.0,67,0.00,,,0.01,886,WeatherCatV1.14B232,2013-06-25 23:30:00,
2013-06-25 16:35:00,78.0,65.3,29.99,South,174,0.0,1.0,65,0.00,,,0.01,928,WeatherCatV1.14B232,2013-06-25 23:35:00,
2013-06-25 16:40:00,79.2,65.5,29.98,South,173,1.0,3.0,63,0.00,,,0.01,708,WeatherCatV1.14B232,2013-06-25 23:40:00,
2013-06-25 16:45:00,79.6,64.9,29.98,ESE,123,1.0,7.0,61,0.00,,,0.01,895,WeatherCatV1.14B232,2013-06-25 23:45:00,
2013-06-25 16:50:00,79.2,64.6,29.98,SSW,212,1.0,9.0,61,0.00,,,0.01,830,WeatherCatV1.14B232,2013-06-25 23:50:00,
2013-06-25 16:55:00,79.2,65.5,29.98,SSE,165,2.0,3.0,63,0.00,,,0.01,807,WeatherCatV1.14B232,2013-06-25 23:55:00,
2013-06-25 17:00:00,79.2,64.6,29.98,South,187,1.0,4.0,61,0.00,,,0.01,775,WeatherCatV1.14B232,2013-06-26 00:00:00,
2013-06-25 17:05:00,79.4,64.8,29.98,SSW,205,0.0,2.0,61,0.00,,,0.01,798,WeatherCatV1.14B232,2013-06-26 00:05:00,
2013-06-25 17:10:00,79.2,65.0,29.98,SSW,196,0.0,1.0,62,0.00,,,0.01,726,WeatherCatV1.14B232,2013-06-26 00:10:00,
2013-06-25 17:15:00,79.1,64.5,29.98,SSW,212,1.0,1.0,61,0.00,,,0.01,680,WeatherCatV1.14B232,2013-06-26 00:15:00,
2013-06-25 17:20:00,78.7,64.6,29.98,SSE,167,0.0,2.0,62,0.00,,,0.01,656,WeatherCatV1.14B232,2013-06-26 00:20:00,
2013-06-25 17:25:00,78.7,64.6,29.98,South,169,0.0,1.0,62,0.00,,,0.01,680,WeatherCatV1.14B232,2013-06-26 00:25:00,
2013-06-25 17:30:00,78.7,64.1,29.97,SE,138,0.0,5.0,61,0.00,,,0.01,670,WeatherCatV1.14B232,2013-06-26 00:30:00,
2013-06-25 17:35:00,78.9,64.3,29.97,South,175,0.0,4.0,61,0.00,,,0.01,330,WeatherCatV1.14B232,2013-06-26 00:35:00,
2013-06-25 17:40:00,78.6,64.9,29.98,SW,223,0.0,2.0,63,0.00,,,0.01,156,WeatherCatV1.14B232,2013-06-26 00:40:00,
2013-06-25 17:45:00,78.7,64.6,29.97,SW,227,0.0,2.0,62,0.00,,,0.01,156,WeatherCatV1.14B232,2013-06-26 00:45:00,
2013-06-25 17:50:00,78.7,64.1,29.98,West,281,1.0,1.0,61,0.00,,,0.01,151,WeatherCatV1.14B232,2013-06-26 00:50:00,
2013-06-25 17:55:00,78.5,64.4,29.98,SE,126,1.0,3.0,62,0.00,,,0.01,155,WeatherCatV1.14B232,2013-06-26 00:55:00,
2013-06-25 18:00:00,78.4,64.7,29.98,SSE,148,2.0,2.0,63,0.00,,,0.01,135,WeatherCatV1.14B232,2013-06-26 01:00:00,
2013-06-25 18:05:00,78.4,64.3,29.97,SSW,193,0.0,2.0,62,0.00,,,0.01,132,WeatherCatV1.14B232,2013-06-26 01:05:00,
2013-06-25 18:10:00,78.4,63.8,29.98,ESE,113,0.0,2.0,61,0.00,,,0.01,132,WeatherCatV1.14B232,2013-06-26 01:10:00,
2013-06-25 18:15:00,78.2,64.1,29.98,NW,310,1.0,2.0,62,0.00,,,0.01,139,WeatherCatV1.14B232,2013-06-26 01:15:00,
2013-06-25 18:20:00,77.8,63.7,29.98,West,265,2.0,4.0,62,0.00,,,0.01,128,WeatherCatV1.14B232,2013-06-26 01:20:00,
2013-06-25 18:25:00,77.6,64.0,29.98,West,270,0.0,1.0,63,0.00,,,0.01,120,WeatherCatV1.14B232,2013-06-26 01:25:00,
2013-06-25 18:30:00,77.5,63.9,29.97,WNW,284,4.0,6.0,63,0.00,,,0.01,113,WeatherCatV1.14B232,2013-06-26 01:30:00,
2013-06-25 18:35:00,77.4,63.8,29.97,West,272,2.0,2.0,63,0.00,,,0.01,113,WeatherCatV1.14B232,2013-06-26 01:35:00,
2013-06-25 18:40:00,77.2,63.6,29.97,SW,217,0.0,2.0,63,0.00,,,0.01,98,WeatherCatV1.14B232,2013-06-26 01:40:00,
2013-06-25 18:45:00,77.1,63.5,29.97,West,265,1.0,3.0,63,0.00,,,0.01,93,WeatherCatV1.14B232,2013-06-26 01:45:00,
2013-06-25 18:50:00,76.9,63.8,29.97,West,276,1.0,5.0,64,0.00,,,0.01,81,WeatherCatV1.14B232,2013-06-26 01:50:00,
2013-06-25 18:55:00,76.6,63.5,29.97,West,265,0.0,2.0,64,0.00,,,0.01,81,WeatherCatV1.14B232,2013-06-26 01:55:00,
2013-06-25 19:00:00,76.3,63.6,29.98,SSW,213,1.0,3.0,65,0.00,,,0.01,76,WeatherCatV1.14B232,2013-06-26 02:00:00,
2013-06-25 19:05:00,76.1,63.5,29.97,SW,221,0.0,0.0,65,0.00,,,0.01,65,WeatherCatV1.14B232,2013-06-26 02:05:00,
2013-06-25 19:10:00,75.9,63.3,29.97,West,279,1.0,5.0,65,0.00,,,0.01,60,WeatherCatV1.14B232,2013-06-26 02:10:00,
2013-06-25 19:15:00,75.6,63.0,29.97,WSW,251,0.0,2.0,65,0.00,,,0.01,58,WeatherCatV1.14B232,2013-06-26 02:15:00,
2013-06-25 19:20:00,75.3,63.1,29.97,West,273,0.0,5.0,66,0.00,,,0.01,51,WeatherCatV1.14B232,2013-06-26 02:20:00,
2013-06-25 19:25:00,75.0,62.9,29.97,West,267,5.0,11.0,66,0.00,,,0.01,42,WeatherCatV1.14B232,2013-06-26 02:25:00,
2013-06-25 19:30:00,74.6,62.5,29.98,SE,142,0.0,2.0,66,0.00,,,0.01,37,WeatherCatV1.14B232,2013-06-26 02:30:00,
2013-06-25 19:35:00,74.3,62.6,29.98,WSW,257,0.0,0.0,67,0.00,,,0.01,32,WeatherCatV1.14B232,2013-06-26 02:35:00,
2013-06-25 19:40:00,74.1,62.4,29.98,WNW,295,0.0,8.0,67,0.00,,,0.01,28,WeatherCatV1.14B232,2013-06-26 02:40:00,
2013-06-25 19:45:00,73.8,62.1,29.98,South,180,0.0,2.0,67,0.00,,,0.01,23,WeatherCatV1.14B232,2013-06-26 02:45:00,
2013-06-25 19:50:00,73.5,61.9,29.98,South,182,0.0,0.0,67,0.00,,,0.01,19,WeatherCatV1.14B232,2013-06-26 02:50:00,
2013-06-25 19:55:00,73.1,61.9,29.98,NNW,331,0.0,1.0,68,0.00,,,0.01,16,WeatherCatV1.14B232,2013-06-26 02:55:00,
2013-06-25 20:00:00,72.8,61.6,29.98,NW,326,0.0,2.0,68,0.00,,,0.01,14,WeatherCatV1.14B232,2013-06-26 03:00:00,
2013-06-25 20:05:00,72.5,61.3,29.98,SE,130,0.0,0.0,68,0.00,,,0.01,11,WeatherCatV1.14B232,2013-06-26 03:05:00,
2013-06-25 20:10:00,72.3,61.1,29.98,SE,130,0.0,0.0,68,0.00,,,0.01,11,WeatherCatV1.14B232,2013-06-26 03:10:00,
2013-06-25 20:15:00,72.0,61.3,29.98,WNW,298,0.0,3.0,69,0.00,,,0.01,9,WeatherCatV1.14B232,2013-06-26 03:15:00,
2013-06-25 20:20:00,71.7,61.0,29.98,WNW,290,1.0,1.0,69,0.00,,,0.01,7,WeatherCatV1.14B232,2013-06-26 03:20:00,
2013-06-25 20:25:00,71.4,61.1,29.98,WNW,284,0.0,1.0,70,0.00,,,0.01,5,WeatherCatV1.14B232,2013-06-26 03:25:00,
2013-06-25 20:30:00,71.3,61.0,29.97,West,273,0.0,3.0,70,0.00,,,0.01,0,WeatherCatV1.14B232,2013-06-26 03:30:00,
2013-06-25 20:35:00,71.0,60.7,29.97,West,270,0.0,2.0,70,0.00,,,0.01,0,WeatherCatV1.14B232,2013-06-26 03:35:00,
2013-06-25 20:40:00,70.7,60.8,29.98,West,273,0.0,2.0,71,0.00,,,0.01,0,WeatherCatV1.14B232,2013-06-26 03:40:00,
2013-06-25 20:44:00,70.5,60.6,29.98,West,273,0.0,2.0,71,0.00,,,0.01,0,WeatherCatV1.14B232,2013-06-26 03:44:00,
2013-06-25 20:50:00,70.3,60.4,29.98,West,273,0.0,2.0,71,0.00,,,0.01,0,WeatherCatV1.14B232,2013-06-26 03:50:00,
2013-06-25 20:54:00,70.1,60.2,29.98,West,273,0.0,0.0,71,0.00,,,0.01,0,WeatherCatV1.14B232,2013-06-26 03:54:00,
2013-06-25 20:59:00,69.9,60.5,29.98,West,273,0.0,0.0,72,0.00,,,0.01,0,WeatherCatV1.14B232,2013-06-26 03:59:00,
2013-06-25 21:01:00,69.9,60.5,29.98,West,273,0.0,0.0,72,0.00,,,0.01,0,WeatherCatV1.14B232,2013-06-26 04:01:00,
2013-06-25 21:06:00,69.7,60.3,29.98,West,273,0.0,0.0,72,0.00,,,0.01,0,WeatherCatV1.14B232,2013-06-26 04:06:00,
2013-06-25 21:11:00,69.5,60.1,29.98,West,265,0.0,1.0,72,0.00,,,0.01,0,WeatherCatV1.14B232,2013-06-26 04:11:00,
2013-06-25 21:16:00,69.3,59.9,29.98,SW,222,1.0,1.0,72,0.00,,,0.01,0,WeatherCatV1.14B232,2013-06-26 04:16:00,
2013-06-25 21:21:00,69.1,60.1,29.98,WSW,254,0.0,1.0,73,0.00,,,0.01,0,WeatherCatV1.14B232,2013-06-26 04:21:00,
2013-06-25 21:26:00,68.9,59.9,29.98,West,262,0.0,5.0,73,0.00,,,0.01,0,WeatherCatV1.14B232,2013-06-26 04:26:00,
2013-06-25 21:31:00,68.7,60.1,29.99,West,262,0.0,1.0,74,0.00,,,0.01,0,WeatherCatV1.14B232,2013-06-26 04:31:00,
2013-06-25 21:36:00,68.6,60.0,29.99,West,277,0.0,2.0,74,0.00,,,0.01,0,WeatherCatV1.14B232,2013-06-26 04:36:00,
2013-06-25 21:41:00,68.5,59.9,29.99,West,267,0.0,1.0,74,0.00,,,0.01,0,WeatherCatV1.14B232,2013-06-26 04:41:00,
2013-06-25 21:46:00,68.3,60.1,29.99,West,266,0.0,0.0,75,0.00,,,0.01,0,WeatherCatV1.14B232,2013-06-26 04:46:00,
2013-06-25 21:51:00,68.2,60.0,29.99,West,267,0.0,2.0,75,0.00,,,0.01,0,WeatherCatV1.14B232,2013-06-26 04:51:00,
2013-06-25 21:56:00,68.1,59.9,29.99,West,267,0.0,2.0,75,0.00,,,0.01,0,WeatherCatV1.14B232,2013-06-26 04:56:00,
2013-06-25 22:01:00,68.0,59.8,30.00,West,267,1.0,1.0,75,0.00,,,0.01,0,WeatherCatV1.14B232,2013-06-26 05:01:00,
2013-06-25 22:06:00,67.9,59.7,30.00,West,267,0.0,1.0,75,0.00,,,0.01,0,WeatherCatV1.14B232,2013-06-26 05:06:00,
2013-06-25 22:11:00,67.8,59.9,30.00,West,267,0.0,0.0,76,0.00,,,0.01,0,WeatherCatV1.14B232,2013-06-26 05:11:00,
2013-06-25 22:16:00,67.7,59.9,30.00,West,267,0.0,0.0,76,0.00,,,0.01,0,WeatherCatV1.14B232,2013-06-26 05:16:00,
2013-06-25 22:21:00,67.6,59.8,30.00,West,267,0.0,0.0,76,0.00,,,0.01,0,WeatherCatV1.14B232,2013-06-26 05:21:00,
2013-06-25 22:26:00,67.4,59.6,30.00,West,267,0.0,0.0,76,0.00,,,0.01,0,WeatherCatV1.14B232,2013-06-26 05:26:00,
2013-06-25 22:31:00,67.3,59.5,30.00,West,267,0.0,0.0,76,0.00,,,0.01,0,WeatherCatV1.14B232,2013-06-26 05:31:00,
2013-06-25 22:36:00,67.2,59.4,30.00,West,267,0.0,0.0,76,0.00,,,0.01,0,WeatherCatV1.14B232,2013-06-26 05:36:00,
2013-06-25 22:41:00,67.1,59.3,30.00,West,267,0.0,0.0,76,0.00,,,0.01,0,WeatherCatV1.14B232,2013-06-26 05:41:00,
2013-06-25 22:46:00,67.0,59.2,30.00,West,268,0.0,0.0,76,0.00,,,0.01,0,WeatherCatV1.14B232,2013-06-26 05:46:00,
2013-06-25 22:51:00,66.8,59.0,30.00,West,268,0.0,0.0,76,0.00,,,0.01,0,WeatherCatV1.14B232,2013-06-26 05:51:00,
2013-06-25 22:56:00,66.7,59.3,30.00,West,268,0.0,0.0,77,0.00,,,0.01,0,WeatherCatV1.14B232,2013-06-26 05:56:00,
2013-06-25 23:01:00,66.6,59.2,30.00,West,268,0.0,0.0,77,0.00,,,0.01,0,WeatherCatV1.14B232,2013-06-26 06:01:00,
2013-06-25 23:06:00,66.6,59.5,30.00,WNW,286,0.0,0.0,78,0.00,,,0.01,0,WeatherCatV1.14B232,2013-06-26 06:06:00,
2013-06-25 23:11:00,66.5,59.4,30.01,WNW,286,0.0,0.0,78,0.00,,,0.01,0,WeatherCatV1.14B232,2013-06-26 06:11:00,
2013-06-25 23:16:00,66.3,59.2,30.01,WNW,286,0.0,0.0,78,0.00,,,0.01,0,WeatherCatV1.14B232,2013-06-26 06:16:00,
2013-06-25 23:21:00,66.2,59.1,30.00,WNW,286,0.0,0.0,78,0.00,,,0.01,0,WeatherCatV1.14B232,2013-06-26 06:21:00,
2013-06-25 23:26:00,66.1,59.0,30.00,WNW,286,0.0,0.0,78,0.00,,,0.01,0,WeatherCatV1.14B232,2013-06-26 06:26:00,
2013-06-25 23:31:00,66.0,58.9,30.00,WNW,286,0.0,0.0,78,0.00,,,0.01,0,WeatherCatV1.14B232,2013-06-26 06:31:00,
2013-06-25 23:36:00,65.8,58.7,30.00,WNW,286,0.0,0.0,78,0.00,,,0.01,0,WeatherCatV1.14B232,2013-06-26 06:36:00,
2013-06-25 23:41:00,65.7,58.6,30.01,WNW,286,0.0,0.0,78,0.00,,,0.01,0,WeatherCatV1.14B232,2013-06-26 06:41:00,
2013-06-25 23:46:00,65.5,58.5,30.01,WNW,286,0.0,0.0,78,0.00,,,0.01,0,WeatherCatV1.14B232,2013-06-26 06:46:00,
2013-06-25 23:51:00,65.4,58.4,30.01,WNW,286,0.0,0.0,78,0.00,,,0.01,0,WeatherCatV1.14B232,2013-06-26 06:51:00,
2013-06-25 23:56:00,65.3,58.3,30.01,WNW,286,0.0,0.0,78,0.00,,,0.01,0,WeatherCatV1.14B232,2013-06-26 06:56:00,